This is the latest recevied weather packets stored in our database for station/object K7KRJ-10. If no packets are shown the sender has not sent any weather packets the latest 10 day(s).
| Time | Temp. | Humidity | Pressure | Rain* | Wind** | Luminosity | Snow |
|---|---|---|---|---|---|---|---|
| 1777589226 | 32.22° C | 10% | 1003.4 hPa | 0 mm | - | 664 W/m² | - |
| 1777588326 | 32.78° C | 10% | 1003.4 hPa | 0 mm | - | 675 W/m² | - |
| 1777587423 | 32.22° C | 10% | 1003.6 hPa | 0 mm | - | 738 W/m² | - |
| 1777586523 | 32.78° C | 10% | 1004.1 hPa | 0 mm | - | 248 W/m² | - |
| 1777585623 | 31.67° C | 10% | 1004.5 hPa | 0 mm | - | 831 W/m² | - |
| 1777584723 | 31.67° C | 10% | 1004.4 hPa | 0 mm | - | 875 W/m² | - |
| 1777583821 | 31.67° C | 10% | 1004.8 hPa | 0 mm | - | 758 W/m² | - |
| 1777582918 | 31.67° C | 10% | 1004.9 hPa | 0 mm | - | 949 W/m² | - |
| 1777582015 | 31.67° C | 10% | 1005.2 hPa | 0 mm | - | 984 W/m² | - |
| 1777581114 | 31.11° C | 11% | 1005.4 hPa | 0 mm | - | 988 W/m² | - |
| 1777580212 | 31.11° C | 11% | 1005.3 hPa | 0 mm | - | 1027 W/m² | - |
| 1777579309 | 31.11° C | 11% | 1005.6 hPa | 0 mm | - | 1042 W/m² | - |
| 1777578405 | 31.11° C | 11% | 1005.9 hPa | 0 mm | - | 1089 W/m² | - |
| 1777577499 | 31.11° C | 11% | 1005.9 hPa | 0 mm | - | 1195 W/m² | - |
| 1777576598 | 30° C | 12% | 1006.4 hPa | 0 mm | - | 1052 W/m² | - |
| 1777575692 | 30° C | 11% | 1006.6 hPa | 0 mm | - | 1049 W/m² | - |
| 1777574792 | 29.44° C | 13% | 1006.8 hPa | 0 mm | - | 1035 W/m² | - |
| 1777573887 | 29.44° C | 13% | 1007.2 hPa | 0 mm | - | 1019 W/m² | - |
| 1777572986 | 28.89° C | 14% | 1007.5 hPa | 0 mm | - | 1003 W/m² | - |
| 1777572084 | 28.89° C | 15% | 1007.8 hPa | 0 mm | - | 982 W/m² | - |
| 1777571184 | 28.33° C | 14% | 1007.8 hPa | 0 mm | - | 949 W/m² | - |
| 1777570285 | 28.33° C | 14% | 1008 hPa | 0 mm | - | 909 W/m² | - |
| 1777569384 | 27.78° C | 15% | 1008.1 hPa | 0 mm | - | 869 W/m² | - |
| 1777568481 | 27.22° C | 14% | 1008.2 hPa | 0 mm | - | 820 W/m² | - |
| 1777567582 | 26.67° C | 16% | 1008 hPa | 0 mm | - | 770 W/m² | - |
* Rain latest hour (hover to see other rain measurements)
** Current wind speed in m/s (hover to see current wind gust speed)